星链-31424 (STARLINK-31424 )

导读 | 豆包AI

STARLINK-31424是美国SpaceX公司星链(Starlink)星座的一颗第二代迷你低轨通信卫星,于北京时间2024年3月16日由猎鹰九号运载火箭,从佛罗里达州肯尼迪航天中心发射入轨。该星属于G6-44批次,单星发射质量约790千克,通信容量可达165Gb/s,旨在为全球提供低延迟高速互联网服务,此次发射后星链入轨卫星总数突破6000颗。

基本信息
目录编号:
59247
目录名称:
STARLINK-31424
国际标识:
2024-049S
轨道中心:
EARTH
卫星名称:
星链-31424
卫星全名:
星链-31424 (STARLINK-31424 )
卫星状态:
在轨 (已飞行729 天)
发射日期:
2024-03-16 UTC
国别 :
美国 (US)
星等 :
--
轨道信息
数据来源 国际轨道数据
星历时间: 2026-03-15T19:49:00+0800
10小时前
查看轨道信息
半长轴: 6861.167km
偏心率: 0.000138
轨道倾角: 43.004°
近地点辐角 261.810°
升交点赤经 107.287°
平近点角 98.260°
近地点: 482.083km
远地点: 483.977km
周期: 94.266分钟
每日圈数: 15.275864
详细信息
固有亮度:
5
最大亮度:
0.3
卫星平台:
Starlink v2.0 mini
覆盖范围:
全球
运营商:
太空探索技术公司
运营商所在国:
美国
制造商(研发单位):
太空探索技术公司
制造商所在国:
美国
使用方式:
暂无
卫星简介
星链(Starlink)计划是由太空探索技术公司(SpaceX)提出的一个巨型低轨卫星互联网星座项目,计划在2019年至2024年间在太空搭建由约1.2万颗卫星组成的“星链”网络,其中1584颗将部署在地球上空550千米处的近地轨道,并从2020年开始工作。该卫星仍在工作。
2D轨道图
3D轨道图
轨道高度分析图
轨道倾角分析图
轨道综合分析图
查看轨道综合分析图